SAUDISAT 3

Last updated on Sun Jun 21 2026 00:03:44 GMT+0000 (Coordinated Universal Time)

1 31118U 07012B 26171.38678826 .00000183 00000+0 37828-4 0 9992 2 31118 98.1457 121.7896 0013829 213.0078 147.0266 14.71427127 28213
UTC large
Height (km)
Speed (km/s)
/
Latitude / Longitude
Inclination (degrees)
Orbital Period (minutes)
Azimuth
Elevation
Range (km)
Doppler Factor

Next 0 passes for location: London (51.5072 / 0.1276)

No passes found over London.
SAUDISAT 3